Back to catalog

FORGESTAR-1

AliveScienceSSO
NORAD 64546·PAYLOAD·🇬🇧 United Kingdom

Launched Jun 23, 2025 from Vandenberg Space Force Base

Loading…

Next Passes (next 24 hours)

TLE

FreshSource: Space-Track

Epoch: Sep 13, 2026, 19:50 UTC

1 64546U 25135U   26256.82649709  .00007192  00000-0  28620-3 0  9997
2 64546  97.4769  12.4076 0001155 129.9356 230.1984 15.25568205 68411

Track FORGESTAR-1 in real time with AllMySat

Download on the App Store